Location: Newark
(46.9000°N, 28.3500°E)
Time: 05:59:41
(UTC+00:00)

Explorer 7 - Pass Details

Date: 30 August 2019
Orbit: 485 x 680 km, 50.3° (Epoch: 19 September)

Event Time Altitude Azimuth Distance (km) Brightness Sun altitude
Rises 05:07:39 0° 233° (SW) 3,025 10.2 16.9°
Reaches altitude 10° 05:10:02 10° 230° (SW) 2,112 9.4 17.3°
Maximum altitude 05:14:53 63° 151° (SSE) 753 8.1 18.1°
Drops below altitude 10° 05:19:38 10° 71° (ENE) 2,070 11.1 18.9°
Sets 05:21:57 0° 68° (ENE) 2,959 11.6 19.3°
